When you browse on this site, cookies collect data to enhance your experience and personalize the content and advertising you see.
Visit our Privacy Policy to learn more. By continuing to use the site, you agree to this use of cookies and data.
  • En España
  • Lista de países
  • Para 7 días
  • Temperatura del agua
  • Mapa Satelital
  • El tiempo en el mapa
  • Informadores
  • user-avatar
    Iniciar sesión

    Tiempo cada hora La Massana

    Hoy, 23 Marzo, Sábado

    Tiempo Temperatura Precipitaciones Viento Presión Humedad
    00:00 +2°C° 0 mm 1 mps 614 mmHg 76%
    01:00 +1°C° 0 mm 1 mps 613 mmHg 76%
    02:00 +1°C° 0 mm 1 mps 613 mmHg 75%
    03:00 +1°C° 0 mm 1 mps 613 mmHg 74%
    04:00 +1°C° 0 mm 1 mps 613 mmHg 73%
    05:00 +1°C° 0 mm 1 mps 613 mmHg 72%
    06:00 +1°C° 0 mm 1 mps 613 mmHg 70%
    07:00 +4°C° 0 mm 1 mps 614 mmHg 62%
    08:00 +6°C° 0 mm 0 mps 615 mmHg 54%
    09:00 +8°C° 0 mm 0 mps 617 mmHg 47%
    10:00 +10°C° 0 mm 0 mps 617 mmHg 44%
    11:00 +12°C° 0 mm 1 mps 617 mmHg 41%
    12:00 +13°C° 0 mm 1 mps 618 mmHg 37%
    13:00 +12°C° 0 mm 1 mps 617 mmHg 38%
    14:00 +12°C° 0 mm 1 mps 617 mmHg 39%
    15:00 +12°C° 0 mm 2 mps 616 mmHg 40%
    16:00 +10°C° 0 mm 1 mps 615 mmHg 47%
    17:00 +8°C° 0 mm 1 mps 614 mmHg 55%
    18:00 +6°C° 0 mm 1 mps 613 mmHg 63%
    19:00 +5°C° 0 mm 1 mps 613 mmHg 66%
    20:00 +4°C° 0 mm 1 mps 613 mmHg 69%
    21:00 +3°C° 0 mm 1 mps 613 mmHg 73%
    22:00 +3°C° 0 mm 1 mps 613 mmHg 72%
    23:00 +2°C° 0 mm 1 mps 612 mmHg 71%

    Mañana, 24 Marzo, Domingo

    Tiempo Temperatura Precipitaciones Viento Presión Humedad
    00:00 +2°C° 0 mm 1 mps 612 mmHg 70%
    01:00 +2°C° 0 mm 1 mps 612 mmHg 68%
    02:00 +2°C° 0 mm 1 mps 612 mmHg 66%
    03:00 +2°C° 0 mm 1 mps 612 mmHg 64%
    04:00 +2°C° 0 mm 1 mps 612 mmHg 62%
    05:00 +2°C° 0 mm 1 mps 612 mmHg 61%
    06:00 +2°C° 0 mm 1 mps 612 mmHg 60%
    07:00 +5°C° 0 mm 1 mps 613 mmHg 53%
    08:00 +7°C° 0 mm 1 mps 614 mmHg 46%
    09:00 +10°C° 0 mm 1 mps 616 mmHg 39%
    10:00 +11°C° 0 mm 1 mps 616 mmHg 38%
    11:00 +12°C° 0 mm 1 mps 616 mmHg 37%
    12:00 +13°C° 0 mm 1 mps 617 mmHg 35%
    13:00 +12°C° 0.1 mm 1 mps 616 mmHg 39%
    14:00 +12°C° 0.1 mm 1 mps 615 mmHg 42%
    15:00 +10°C° 0.1 mm 2 mps 615 mmHg 46%
    16:00 +9°C° 0.6 mm 1 mps 614 mmHg 57%
    17:00 +8°C° 0.6 mm 1 mps 613 mmHg 68%
    18:00 +6°C° 0.6 mm 1 mps 613 mmHg 79%
    19:00 +5°C° 0.2 mm 1 mps 612 mmHg 83%
    20:00 +4°C° 0.2 mm 1 mps 612 mmHg 88%
    21:00 +3°C° 0.2 mm 1 mps 612 mmHg 92%
    22:00 +3°C° 0 mm 1 mps 612 mmHg 92%
    23:00 +2°C° 0 mm 1 mps 611 mmHg 92%

    Pasado mañana, 25 Marzo, Lunes

    Tiempo Temperatura Precipitaciones Viento Presión Humedad
    00:00 +1°C° 0 mm 1 mps 611 mmHg 92%
    01:00 +1°C° 0 mm 1 mps 611 mmHg 88%
    02:00 +1°C° 0 mm 1 mps 610 mmHg 84%
    03:00 0°C° 0 mm 1 mps 610 mmHg 80%
    04:00 0°C° 0 mm 1 mps 610 mmHg 77%
    05:00 0°C° 0 mm 1 mps 610 mmHg 75%
    06:00 0°C° 0 mm 1 mps 610 mmHg 73%
    07:00 +1°C° 0 mm 2 mps 611 mmHg 67%
    08:00 +3°C° 0 mm 2 mps 612 mmHg 60%
    09:00 +5°C° 0 mm 2 mps 613 mmHg 54%
    10:00 +6°C° 0 mm 2 mps 613 mmHg 52%
    11:00 +7°C° 0 mm 2 mps 613 mmHg 50%
    12:00 +8°C° 0 mm 2 mps 614 mmHg 48%
    13:00 +8°C° 0 mm 3 mps 613 mmHg 49%
    14:00 +7°C° 0 mm 3 mps 612 mmHg 51%
    15:00 +7°C° 0 mm 3 mps 612 mmHg 53%
    16:00 +4°C° 0 mm 3 mps 611 mmHg 61%
    17:00 +2°C° 0 mm 3 mps 610 mmHg 68%
    18:00 -1°C° 0 mm 3 mps 609 mmHg 76%
    19:00 -1°C° 0 mm 3 mps 609 mmHg 78%
    20:00 -2°C° 0 mm 3 mps 610 mmHg 80%
    21:00 -4°C° 0 mm 3 mps 610 mmHg 83%
    22:00 -4°C° 0 mm 3 mps 610 mmHg 84%
    23:00 -4°C° 0 mm 3 mps 610 mmHg 85%

    26 Marzo, Martes

    Tiempo Temperatura Precipitaciones Viento Presión Humedad
    00:00 -4°C° 0 mm 4 mps 610 mmHg 86%
    01:00 -4°C° 0 mm 4 mps 610 mmHg 85%
    02:00 -5°C° 0 mm 3 mps 610 mmHg 84%
    03:00 -5°C° 0 mm 3 mps 610 mmHg 83%
    04:00 -6°C° 0 mm 3 mps 610 mmHg 75%
    05:00 -6°C° 0 mm 3 mps 610 mmHg 68%
    06:00 -7°C° 0 mm 3 mps 610 mmHg 61%
    07:00 -5°C° 0 mm 4 mps 611 mmHg 49%
    08:00 -2°C° 0 mm 4 mps 612 mmHg 37%
    09:00 0°C° 0 mm 4 mps 613 mmHg 26%
    10:00 +1°C° 0 mm 4 mps 613 mmHg 23%
    11:00 +3°C° 0 mm 4 mps 614 mmHg 21%
    12:00 +5°C° 0 mm 4 mps 614 mmHg 18%
    13:00 +5°C° 0 mm 4 mps 614 mmHg 21%
    14:00 +5°C° 0 mm 3 mps 614 mmHg 23%
    15:00 +4°C° 0 mm 3 mps 613 mmHg 25%
    16:00 +3°C° 0 mm 3 mps 613 mmHg 34%
    17:00 +2°C° 0 mm 2 mps 612 mmHg 42%
    18:00 -1°C° 0 mm 2 mps 611 mmHg 51%
    19:00 -2°C° 0 mm 2 mps 612 mmHg 52%
    20:00 -3°C° 0 mm 2 mps 612 mmHg 53%
    21:00 -4°C° 0 mm 2 mps 612 mmHg 55%
    22:00 -4°C° 0 mm 2 mps 612 mmHg 54%
    23:00 -2°C° 0 mm 1 mps 612 mmHg 54%

    27 Marzo, Miércoles

    Tiempo Temperatura Precipitaciones Viento Presión Humedad
    00:00 -2°C° 0 mm 1 mps 612 mmHg 53%
    01:00 -2°C° 0 mm 1 mps 612 mmHg 55%
    02:00 -2°C° 0 mm 1 mps 612 mmHg 56%
    03:00 -2°C° 0 mm 1 mps 612 mmHg 58%
    04:00 -2°C° 0 mm 1 mps 612 mmHg 56%
    05:00 -2°C° 0 mm 1 mps 612 mmHg 53%
    06:00 -2°C° 0 mm 1 mps 612 mmHg 51%
    07:00 0°C° 0 mm 1 mps 613 mmHg 42%
    08:00 +3°C° 0 mm 1 mps 615 mmHg 33%
    09:00 +6°C° 0 mm 1 mps 616 mmHg 25%
    10:00 +7°C° 0 mm 1 mps 617 mmHg 24%
    11:00 +9°C° 0 mm 1 mps 617 mmHg 24%
    12:00 +9°C° 0 mm 2 mps 617 mmHg 23%
    13:00 +8°C° 0 mm 2 mps 617 mmHg 26%
    14:00 +8°C° 0 mm 2 mps 616 mmHg 29%
    15:00 +8°C° 0 mm 2 mps 616 mmHg 32%
    16:00 +5°C° 0 mm 2 mps 615 mmHg 42%
    17:00 +3°C° 0 mm 2 mps 614 mmHg 51%
    18:00 +2°C° 0 mm 1 mps 613 mmHg 61%
    19:00 +1°C° 0 mm 1 mps 613 mmHg 63%
    20:00 0°C° 0 mm 1 mps 613 mmHg 64%
    21:00 -1°C° 0 mm 1 mps 613 mmHg 66%
    22:00 -1°C° 0 mm 1 mps 613 mmHg 63%
    23:00 -1°C° 0 mm 1 mps 613 mmHg 60%

    28 Marzo, Jueves

    Tiempo Temperatura Precipitaciones Viento Presión Humedad
    00:00 -1°C° 0 mm 1 mps 613 mmHg 57%
    01:00 -1°C° 0 mm 1 mps 613 mmHg 60%
    02:00 -1°C° 0 mm 1 mps 612 mmHg 63%
    03:00 -1°C° 0 mm 1 mps 612 mmHg 66%
    04:00 -1°C° 0 mm 1 mps 612 mmHg 66%
    05:00 -1°C° 0 mm 1 mps 612 mmHg 66%
    06:00 -1°C° 0 mm 1 mps 612 mmHg 66%
    07:00 +2°C° 0 mm 1 mps 614 mmHg 58%
    08:00 +4°C° 0 mm 1 mps 615 mmHg 49%
    09:00 +7°C° 0 mm 1 mps 616 mmHg 41%
    10:00 +8°C° 0 mm 1 mps 616 mmHg 40%
    11:00 +9°C° 0 mm 1 mps 616 mmHg 39%
    12:00 +10°C° 0 mm 1 mps 617 mmHg 38%
    13:00 +9°C° 0.1 mm 1 mps 616 mmHg 43%
    14:00 +8°C° 0.1 mm 1 mps 615 mmHg 48%
    15:00 +7°C° 0.1 mm 1 mps 614 mmHg 53%
    16:00 +6°C° 0.2 mm 1 mps 614 mmHg 60%
    17:00 +4°C° 0.2 mm 1 mps 613 mmHg 68%
    18:00 +3°C° 0.2 mm 1 mps 613 mmHg 75%
    19:00 +3°C° 0.1 mm 1 mps 613 mmHg 80%
    20:00 +2°C° 0.1 mm 1 mps 613 mmHg 84%
    21:00 +1°C° 0.1 mm 1 mps 613 mmHg 88%
    22:00 +1°C° 0 mm 1 mps 613 mmHg 90%
    23:00 +1°C° 0 mm 1 mps 613 mmHg 92%
    Mostrar más